When you browse on this site, cookies collect data to enhance your experience and personalize the content and advertising you see.
Visit our Privacy Policy to learn more. By continuing to use the site, you agree to this use of cookies and data.
  • In Romania
  • List of Countries
  • For 7 days
  • Water Temperature
  • Satellite Maps
  • Weather Map
  • Weather Widgets
  • user-avatar
    Login

    Hourly Weather Arne

    Today, 25 April, Thursday

    Time Temperature Precipitation Wind Pressure Humidity
    00:00 +7°C° 0 mm 1 mps 678 mmHg 90%
    01:00 +7°C° 0 mm 1 mps 678 mmHg 89%
    02:00 +7°C° 0 mm 1 mps 678 mmHg 88%
    03:00 +6°C° 0 mm 2 mps 678 mmHg 87%
    04:00 +6°C° 0 mm 2 mps 678 mmHg 86%
    05:00 +6°C° 0 mm 2 mps 678 mmHg 83%
    06:00 +7°C° 0 mm 2 mps 679 mmHg 81%
    07:00 +8°C° 0 mm 2 mps 679 mmHg 78%
    08:00 +10°C° 0 mm 2 mps 679 mmHg 67%
    09:00 +14°C° 0 mm 2 mps 680 mmHg 57%
    10:00 +16°C° 0 mm 2 mps 680 mmHg 46%
    11:00 +17°C° 0 mm 3 mps 680 mmHg 44%
    12:00 +17°C° 0 mm 3 mps 680 mmHg 41%
    13:00 +18°C° 0 mm 3 mps 680 mmHg 39%
    14:00 +18°C° 0 mm 3 mps 679 mmHg 40%
    15:00 +18°C° 0 mm 3 mps 679 mmHg 41%
    16:00 +18°C° 0 mm 3 mps 679 mmHg 42%
    17:00 +16°C° 0 mm 3 mps 679 mmHg 49%
    18:00 +13°C° 0 mm 3 mps 678 mmHg 57%
    19:00 +12°C° 0 mm 2 mps 678 mmHg 65%
    20:00 +10°C° 0 mm 2 mps 678 mmHg 69%
    21:00 +9°C° 0 mm 2 mps 678 mmHg 73%
    22:00 +8°C° 0 mm 2 mps 678 mmHg 77%
    23:00 +8°C° 0.8 mm 2 mps 678 mmHg 83%

    Tomorrow, 26 April, Friday

    Time Temperature Precipitation Wind Pressure Humidity
    00:00 +9°C° 0.8 mm 1 mps 678 mmHg 88%
    01:00 +8°C° 0.8 mm 1 mps 678 mmHg 93%
    02:00 +8°C° 2.3 mm 1 mps 678 mmHg 94%
    03:00 +7°C° 2.3 mm 1 mps 678 mmHg 96%
    04:00 +6°C° 2.3 mm 1 mps 678 mmHg 97%
    05:00 +6°C° 4 mm 1 mps 678 mmHg 97%
    06:00 +4°C° 4 mm 2 mps 678 mmHg 98%
    07:00 +3°C° 4 mm 2 mps 678 mmHg 98%
    08:00 +3°C° 3.7 mm 2 mps 679 mmHg 97%
    09:00 +3°C° 3.7 mm 2 mps 679 mmHg 97%
    10:00 +3°C° 3.7 mm 2 mps 680 mmHg 97%
    11:00 +3°C° 1.5 mm 2 mps 681 mmHg 96%
    12:00 +5°C° 1.5 mm 1 mps 681 mmHg 95%
    13:00 +5°C° 1.5 mm 1 mps 682 mmHg 94%
    14:00 +5°C° 0.7 mm 1 mps 682 mmHg 94%
    15:00 +6°C° 0.7 mm 1 mps 682 mmHg 94%
    16:00 +6°C° 0.7 mm 1 mps 682 mmHg 94%
    17:00 +5°C° 0.1 mm 1 mps 682 mmHg 93%
    18:00 +5°C° 0.1 mm 1 mps 682 mmHg 92%
    19:00 +4°C° 0.1 mm 1 mps 683 mmHg 91%
    20:00 +2°C° 0 mm 2 mps 683 mmHg 90%
    21:00 +2°C° 0 mm 2 mps 683 mmHg 88%
    22:00 +1°C° 0 mm 2 mps 684 mmHg 86%
    23:00 -1°C° 0 mm 2 mps 684 mmHg 85%

    Day after tomorrow, 27 April, Saturday

    Time Temperature Precipitation Wind Pressure Humidity
    00:00 -1°C° 0 mm 2 mps 684 mmHg 84%
    01:00 -1°C° 0 mm 2 mps 684 mmHg 83%
    02:00 -1°C° 0 mm 2 mps 684 mmHg 83%
    03:00 -1°C° 0 mm 2 mps 684 mmHg 83%
    04:00 -1°C° 0 mm 2 mps 684 mmHg 84%
    05:00 +1°C° 0.1 mm 2 mps 684 mmHg 83%
    06:00 +2°C° 0.1 mm 2 mps 684 mmHg 83%
    07:00 +3°C° 0.1 mm 2 mps 684 mmHg 83%
    08:00 +4°C° 0.2 mm 2 mps 684 mmHg 82%
    09:00 +6°C° 0.2 mm 2 mps 684 mmHg 82%
    10:00 +7°C° 0.2 mm 2 mps 684 mmHg 82%
    11:00 +8°C° 0.1 mm 3 mps 684 mmHg 77%
    12:00 +9°C° 0.1 mm 3 mps 684 mmHg 73%
    13:00 +10°C° 0.1 mm 4 mps 684 mmHg 68%
    14:00 +10°C° 0.4 mm 4 mps 684 mmHg 72%
    15:00 +8°C° 0.4 mm 4 mps 683 mmHg 75%
    16:00 +8°C° 0.4 mm 4 mps 683 mmHg 79%
    17:00 +6°C° 1.1 mm 4 mps 683 mmHg 84%
    18:00 +5°C° 1.1 mm 3 mps 683 mmHg 90%
    19:00 +3°C° 1.1 mm 3 mps 682 mmHg 96%
    20:00 +3°C° 1.1 mm 2 mps 683 mmHg 96%
    21:00 +3°C° 1.1 mm 2 mps 683 mmHg 96%
    22:00 +2°C° 1.1 mm 2 mps 684 mmHg 96%
    23:00 +2°C° 0.4 mm 2 mps 684 mmHg 96%

    28 April, Sunday

    Time Temperature Precipitation Wind Pressure Humidity
    00:00 +2°C° 0.4 mm 2 mps 684 mmHg 96%
    01:00 +1°C° 0.4 mm 2 mps 684 mmHg 96%
    02:00 +1°C° 0.1 mm 2 mps 684 mmHg 96%
    03:00 -1°C° 0.1 mm 2 mps 683 mmHg 96%
    04:00 -1°C° 0.1 mm 2 mps 683 mmHg 96%
    05:00 -1°C° 0 mm 2 mps 683 mmHg 94%
    06:00 +1°C° 0 mm 2 mps 683 mmHg 92%
    07:00 +1°C° 0 mm 2 mps 683 mmHg 90%
    08:00 +1°C° 0.2 mm 3 mps 683 mmHg 86%
    09:00 +2°C° 0.2 mm 3 mps 683 mmHg 82%
    10:00 +3°C° 0.2 mm 3 mps 683 mmHg 78%
    11:00 +3°C° 0.4 mm 3 mps 683 mmHg 79%
    12:00 +3°C° 0.4 mm 3 mps 683 mmHg 80%
    13:00 +3°C° 0.4 mm 3 mps 683 mmHg 81%
    14:00 +3°C° 0.4 mm 3 mps 683 mmHg 81%
    15:00 +4°C° 0.4 mm 3 mps 683 mmHg 82%
    16:00 +4°C° 0.4 mm 3 mps 683 mmHg 82%
    17:00 +4°C° 0.2 mm 2 mps 683 mmHg 85%
    18:00 +3°C° 0.2 mm 2 mps 683 mmHg 89%
    19:00 +4°C° 0.2 mm 1 mps 683 mmHg 92%
    20:00 +3°C° 0.1 mm 1 mps 683 mmHg 91%
    21:00 +1°C° 0.1 mm 2 mps 683 mmHg 91%
    22:00 -1°C° 0.1 mm 2 mps 683 mmHg 91%
    23:00 -1°C° 0 mm 2 mps 683 mmHg 90%

    29 April, Monday

    Time Temperature Precipitation Wind Pressure Humidity
    00:00 +1°C° 0 mm 1 mps 683 mmHg 89%
    01:00 0°C° 0 mm 1 mps 683 mmHg 88%
    02:00 0°C° 0 mm 1 mps 683 mmHg 88%
    03:00 0°C° 0 mm 1 mps 683 mmHg 88%
    04:00 0°C° 0 mm 1 mps 683 mmHg 88%
    05:00 +1°C° 0 mm 1 mps 683 mmHg 88%
    06:00 +2°C° 0 mm 1 mps 683 mmHg 87%
    07:00 +2°C° 0 mm 0 mps 683 mmHg 86%
    08:00 +4°C° 0 mm 1 mps 683 mmHg 85%
    09:00 +5°C° 0 mm 1 mps 683 mmHg 84%
    10:00 +6°C° 0 mm 1 mps 683 mmHg 83%
    11:00 +5°C° 0 mm 2 mps 683 mmHg 81%
    12:00 +6°C° 0 mm 2 mps 683 mmHg 79%
    13:00 +7°C° 0 mm 2 mps 683 mmHg 77%
    14:00 +7°C° 0 mm 2 mps 683 mmHg 76%
    15:00 +8°C° 0 mm 2 mps 683 mmHg 75%
    16:00 +8°C° 0 mm 2 mps 683 mmHg 74%
    17:00 +8°C° 0 mm 1 mps 683 mmHg 79%
    18:00 +8°C° 0 mm 1 mps 683 mmHg 85%
    19:00 +7°C° 0 mm 1 mps 683 mmHg 90%
    20:00 +6°C° 0 mm 1 mps 683 mmHg 91%
    21:00 +5°C° 0 mm 1 mps 683 mmHg 92%
    22:00 +3°C° 0 mm 1 mps 683 mmHg 93%
    23:00 +3°C° 0 mm 1 mps 683 mmHg 92%

    30 April, Tuesday

    Time Temperature Precipitation Wind Pressure Humidity
    00:00 +3°C° 0 mm 1 mps 683 mmHg 92%
    01:00 +2°C° 0 mm 1 mps 683 mmHg 92%
    02:00 +2°C° 0 mm 1 mps 683 mmHg 92%
    03:00 +2°C° 0 mm 1 mps 683 mmHg 91%
    04:00 +2°C° 0 mm 1 mps 682 mmHg 91%
    05:00 +3°C° 0 mm 1 mps 682 mmHg 90%
    06:00 +4°C° 0 mm 1 mps 682 mmHg 88%
    07:00 +5°C° 0 mm 1 mps 682 mmHg 86%
    08:00 +7°C° 0 mm 1 mps 683 mmHg 80%
    09:00 +9°C° 0 mm 1 mps 683 mmHg 74%
    10:00 +11°C° 0 mm 1 mps 683 mmHg 68%
    11:00 +12°C° 0 mm 1 mps 683 mmHg 66%
    12:00 +13°C° 0 mm 1 mps 682 mmHg 63%
    13:00 +13°C° 0 mm 1 mps 682 mmHg 61%
    14:00 +12°C° 0.2 mm 1 mps 682 mmHg 68%
    15:00 +12°C° 0.2 mm 1 mps 682 mmHg 75%
    16:00 +11°C° 0.2 mm 1 mps 681 mmHg 81%
    17:00 +10°C° 0.2 mm 1 mps 681 mmHg 85%
    18:00 +9°C° 0.2 mm 1 mps 681 mmHg 89%
    19:00 +7°C° 0.2 mm 0 mps 681 mmHg 93%
    20:00 +6°C° 0 mm 0 mps 681 mmHg 94%
    21:00 +6°C° 0 mm 1 mps 681 mmHg 95%
    22:00 +5°C° 0 mm 1 mps 681 mmHg 95%
    23:00 +5°C° 0 mm 1 mps 681 mmHg 95%
    Show more